CW8738 Weather Reports


time (UTC)temp
C
wind
direction
speed
KPH
gust
KPH
rain 1hr
cm
rain 24hr
cm
rain mn
cm
humidity
%
barometer
mb
20260506005516 22 338 3.2 11.3 0.00 0.91 0.00 28 1015.4
20260506004516 21 23 11.3 19.3 0.00 0.91 0.00 29 1015.5
20260506003516 21 338 12.9 22.5 0.00 0.91 0.00 30 1015.6
20260506002517 21 0 11.3 17.7 0.00 0.91 0.00 29 1015.6
20260506001516 22 23 12.9 20.9 0.00 0.91 0.00 29 1015.7
20260506000516 22 23 9.7 24.1 0.00 0.91 0.00 28 1015.7
20260505235516 22 23 12.9 22.5 0.00 0.91 0.00 28 1015.8
20260505234517 22 23 9.7 19.3 0.00 0.91 0.00 29 1015.9
20260505233537 22 338 11.3 25.7 0.00 0.91 0.00 27 1015.7
20260505232556 22 45 3.2 11.3 0.00 0.91 0.00 31 1016.0
20260505231536 21 338 6.4 14.5 0.00 0.91 0.00 33 1016.1
20260505230516 21 315 6.4 20.9 0.00 0.91 0.00 34 1015.9
20260505225516 21 0 16.1 30.6 0.00 0.91 0.00 31 1016.0
20260505224516 21 338 14.5 25.7 0.00 0.91 0.00 31 1015.8
20260505223517 21 45 4.8 20.9 0.00 0.91 0.00 32 1015.9
20260505222516 21 338 14.5 25.7 0.00 0.91 0.00 33 1015.9
20260505221516 20 338 8.0 16.1 0.00 0.91 0.00 32 1016.0
20260505220516 20 338 8.0 19.3 0.00 0.91 0.00 36 1016.4
20260505215516 20 23 6.4 19.3 0.00 0.97 0.00 33 1016.5
20260505214516 20 0.0 4.8 0.00 0.97 0.00 37 1016.4
20260505213516 20 338 8.0 19.3 0.00 0.97 0.00 37 1016.4
20260505212516 19 23 4.8 16.1 0.00 0.97 0.00 36 1016.4
20260505211517 19 248 3.2 14.5 0.00 0.97 0.00 37 1016.3
20260505210516 19 23 9.7 17.7 0.00 0.97 0.00 40 1016.4
20260505205516 19 90 1.6 11.3 0.00 0.97 0.00 41 1016.5
20260505204536 18 315 4.8 16.1 0.00 0.97 0.00 41 1016.2
20260505203516 18 338 9.7 19.3 0.00 0.97 0.00 42 1016.4
20260505202516 18 0.0 6.4 0.00 0.97 0.00 45 1016.5
20260505201516 18 135 1.6 9.7 0.00 0.97 0.00 49 1016.7
20260505200516 17 203 1.6 8.0 0.00 0.97 0.00 52 1016.8
20260505195516 17 158 3.2 11.3 0.00 0.97 0.00 53 1016.5
20260505194516 16 225 9.7 16.1 0.00 0.97 0.00 56 1016.4
20260505193516 17 293 4.8 12.9 0.00 0.97 0.00 57 1016.7
20260505192516 17 135 4.8 11.3 0.00 0.97 0.00 58 1016.5
20260505191516 16 203 3.2 8.0 0.00 0.97 0.00 58 1016.5
20260505190516 15 270 3.2 9.7 0.00 0.97 0.00 59 1016.4
20260505185516 15 225 3.2 11.3 0.00 0.97 0.00 60 1016.5
20260505184516 15 270 1.6 4.8 0.00 0.97 0.00 59 1016.2
20260505183516 15 248 1.6 8.0 0.00 0.97 0.00 64 1016.3
20260505182516 15 0.0 6.4 0.00 0.97 0.00 64 1016.4
20260505181516 14 180 4.8 14.5 0.00 0.97 0.00 65 1016.4
20260505180516 13 0.0 4.8 0.00 0.97 0.00 66 1016.1
20260505175516 13 135 3.2 9.7 0.00 0.97 0.00 68 1016.0
20260505174516 13 225 1.6 11.3 0.00 0.97 0.00 70 1016.0
20260505173516 13 0.0 0.0 0.00 0.97 0.00 70 1015.9
20260505172516 12 158 6.4 12.9 0.00 0.97 0.00 72 1015.5
20260505171516 12 158 11.3 17.7 0.00 0.97 0.00 71 1015.5
20260505170516 12 0.0 0.0 0.00 0.97 0.00 73 1015.5
20260505165516 11 0.0 0.0 0.00 0.97 0.00 73 1015.4
20260505164516 11 0.0 0.0 0.00 0.97 0.00 77 1015.2
20260505163516 10 0.0 0.0 0.00 0.97 0.00 76 1014.8
20260505162516 10 0.0 0.0 0.00 0.97 0.00 77 1014.8
20260505161516 10 0.0 0.0 0.00 0.97 0.00 77 1014.7
20260505160516 10 0.0 0.0 0.00 0.97 0.00 78 1014.7
20260505152516 9 0.0 0.0 0.00 0.97 0.00 80 1014.0
20260505151516 9 0.0 0.0 0.00 0.97 0.00 80 1013.9
20260505150516 9 0.0 0.0 0.00 0.97 0.00 81 1013.8
20260505140515 8 0.0 0.0 0.00 0.97 0.00 88 1013.3
20260505124516 8 135 6.4 12.9 0.00 0.97 0.00 83 1014.1
20260505123536 8 0.0 0.0 0.00 0.97 0.00 83 1014.1
20260505122516 8 0.0 0.0 0.00 0.97 0.00 83 1013.9
20260505121515 8 0.0 0.0 0.00 0.97 0.00 82 1013.9
20260505120515 8 0.0 0.0 0.00 0.97 0.00 85 1014.3
20260505115516 8 0.0 0.0 0.00 0.97 0.00 85 1014.3
20260505114516 8 158 9.7 14.5 0.00 0.97 0.00 85 1014.2
20260505113515 8 135 3.2 16.1 0.00 0.97 0.00 81 1014.4
20260505112516 8 0.0 0.0 0.00 0.97 0.00 82 1014.4
20260505111516 8 0.0 0.0 0.00 0.97 0.00 83 1014.6
20260505110515 7 135 1.6 12.9 0.00 0.97 0.00 84 1014.8
20260505101515 7 180 4.8 8.0 0.00 0.97 0.00 86 1014.8
20260505100516 8 158 6.4 9.7 0.00 0.97 0.00 84 1014.9
20260505095515 8 135 9.7 11.3 0.00 0.97 0.00 81 1014.6
20260505094515 8 135 6.4 11.3 0.00 0.97 0.00 82 1014.5
20260505093535 8 113 9.7 17.7 0.00 0.97 0.00 82 1014.9
20260505092515 7 113 11.3 16.1 0.00 0.97 0.00 85 1014.7
20260505091515 7 158 14.5 19.3 0.00 0.97 0.00 87 1015.0
20260505090515 7 135 1.6 17.7 0.00 0.97 0.00 86 1014.9
20260505085515 7 0.0 0.0 0.00 0.97 0.00 88 1015.0
20260505084535 7 0.0 0.0 0.00 0.97 0.00 89 1015.1
20260505083535 7 0.0 0.0 0.00 0.97 0.00 90 1015.5
20260505082515 7 0.0 11.3 0.00 0.97 0.00 92 1015.8
20260505081515 7 158 14.5 17.7 0.00 0.97 0.00 92 1015.5
20260505080515 7 135 8.0 11.3 0.00 0.97 0.00 93 1015.6
20260505075515 7 135 9.7 14.5 0.00 0.97 0.00 94 1015.3
20260505074515 7 135 8.0 11.3 0.00 0.97 0.00 94 1015.3
20260505073515 7 135 9.7 12.9 0.00 0.97 0.00 95 1015.2
20260505072515 7 135 6.4 8.0 0.00 0.97 0.00 95 1015.0
20260505071515 7 158 4.8 6.4 0.00 0.97 0.00 95 1015.3
20260505070535 7 135 9.7 11.3 0.00 0.97 0.00 95 1015.3
20260505065515 7 135 12.9 16.1 0.00 0.97 0.97 95 1015.3
20260505064515 7 113 8.0 12.9 0.00 0.97 0.97 94 1014.9
20260505063517 7 135 12.9 17.7 0.00 0.97 0.97 94 1015.0
20260505062517 8 135 8.0 11.3 0.00 0.97 0.97 95 1014.8
20260505061517 7 68 1.6 8.0 0.00 0.97 0.97 95 1014.5
20260505060517 7 315 4.8 16.1 0.00 0.97 0.97 95 1014.2
20260505055517 7 0.0 0.0 0.03 0.97 0.97 95 1014.1
20260505054517 8 0.0 0.0 0.05 0.97 0.97 94 1014.6
20260505053517 7 0.0 0.0 0.05 0.97 0.97 94 1014.5
20260505052517 7 23 4.8 16.1 0.05 0.97 0.97 94 1014.8
20260505051517 8 0.0 0.0 0.05 0.97 0.97 94 1015.0
20260505050517 8 158 3.2 8.0 0.05 0.97 0.97 94 1014.5
20260505041517 7 158 6.4 11.3 0.03 0.91 0.91 94 1013.9
20260505040537 7 158 6.4 9.7 0.03 0.91 0.91 94 1013.6
20260505035517 7 158 8.0 11.3 0.03 0.91 0.91 94 1013.7
20260505034517 7 158 9.7 14.5 0.03 0.91 0.91 94 1013.1
20260505033517 7 135 14.5 20.9 0.03 0.91 0.91 94 1013.0
20260505032517 7 158 11.3 14.5 0.03 0.91 0.91 94 1013.2
20260505031517 7 158 11.3 14.5 0.00 0.89 0.89 94 1013.4
20260505030516 7 180 8.0 12.9 0.00 0.89 0.89 93 1013.4
20260505025517 8 158 14.5 24.1 0.05 0.89 0.89 94 1013.2
20260505024517 8 135 14.5 20.9 0.05 0.89 0.89 94 1012.8
20260505023516 8 135 16.1 22.5 0.08 0.89 0.89 94 1012.2
20260505022516 8 158 16.1 25.7 0.08 0.89 0.89 94 1012.4
20260505021557 8 158 16.1 24.1 0.13 0.89 0.89 94 1012.2
20260505020516 8 135 14.5 20.9 0.84 0.89 0.89 93 1013.0
20260505015537 8 135 14.5 19.3 0.79 0.84 0.84 93 1013.1
20260505014537 8 135 14.5 24.1 0.79 0.84 0.84 93 1012.9
20260505013536 8 158 14.5 20.9 0.76 0.81 0.81 92 1013.0
20260505012516 8 180 20.9 29.0 0.76 0.81 0.81 91 1012.7
20260505011517 8 135 17.7 27.4 0.71 0.76 0.76 90 1013.0
20260505010537 10 135 43.5 57.9 0.00 0.05 0.05 71 1013.1